Home   Weather   Chernobyl   Past weeks

Flag for Ukraine Past Weather in Chernobyl, Ukraine — Yesterday and Last 2 Weeks

43 °F


Feels Like: 38 °F
Forecast: 38 / 43 °F
Wind: 8 mph from Southeast

Location: Hostomel

Current Time: Oct 24, 2016 at 5:26:33 PM

Latest Report: Oct 24, 2016 at 5:00 PM

Visibility: N/A

Pressure: 30.54 "Hg

Humidity: 57%

Dew Point: 28 °F

Location of ChernobylLocation

Past Weather in Chernobyl — Graph


Chernobyl Temperature Yesterday

Maximum temperature yesterday: 45 °F (at 12:30 PM)
Minimum temperature yesterday: 39 °F (at 6:00 AM)
Average temperature yesterday: 42 °F

High & Low Weather Summary for the Past Weeks

High48 °F (Oct 10, 1:30 PM)100% (Oct 9, 4:00 PM)30.72 "Hg (Oct 9, 4:00 PM)
Low27 °F (Oct 14, 6:30 AM)43% (Oct 17, 2:30 PM)29.86 "Hg (Oct 10, 7:00 AM)
Average40 °F76%30.33 "Hg
* Reported Oct 9 4:00 PM — Oct 24 4:00 PM, Chernobyl, Weather by CustomWeather, © 2016

Note: Actual official high and low records may vary slightly from our data, if they occured in-between our weather recording intervals... More about our weather records


Chernobyl Weather History for the Previous 24 Hours

Scroll right to see more
Time TempWeatherWind HumidityBarometerVisibility
4:00 PM
Mon, Oct 24
45 °FSunny.10 mph49%30.54 "Hg10 mi
3:30 PM45 °FSunny.10 mph49%30.54 "Hg10 mi
3:00 PM45 °FPassing clouds.8 mph49%30.54 "HgN/A
2:30 PM45 °FPassing clouds.8 mph49%30.54 "HgN/A
2:00 PM43 °FPassing clouds.10 mph49%30.54 "HgN/A
1:30 PM45 °FPassing clouds.10 mph46%30.54 "HgN/A
1:00 PM43 °FPassing clouds.10 mph49%30.54 "HgN/A
12:30 PM43 °FPassing clouds.10 mph53%30.57 "HgN/A
12:00 PM41 °FPassing clouds.10 mph53%30.57 "HgN/A
11:30 AM41 °FPassing clouds.10 mph53%30.57 "HgN/A
11:00 AM41 °FPartly sunny.10 mph53%30.57 "HgN/A
10:30 AM39 °FOvercast.10 mph56%30.57 "HgN/A
10:00 AM39 °FOvercast.10 mph56%30.57 "HgN/A
9:30 AM39 °FOvercast.10 mph56%30.57 "HgN/A
9:00 AM39 °FOvercast.8 mph61%30.57 "HgN/A
8:30 AM39 °FOvercast.8 mph61%30.54 "HgN/A
8:00 AM39 °FOvercast.8 mph61%30.54 "HgN/A
7:30 AM39 °FOvercast.13 mph61%30.54 "HgN/A
7:00 AM39 °FOvercast.10 mph61%30.54 "HgN/A
6:30 AM39 °FChilly.8 mph65%30.54 "HgN/A
6:00 AM39 °FChilly.8 mph65%30.54 "HgN/A
5:30 AM41 °FQuite cool.8 mph61%30.54 "HgN/A
5:00 AM41 °FQuite cool.8 mph61%30.51 "HgN/A
4:30 AM41 °FQuite cool.10 mph61%30.51 "HgN/A
4:00 AM41 °FQuite cool.8 mph61%30.51 "HgN/A
3:30 AM41 °FQuite cool.8 mph61%30.51 "HgN/A
3:00 AM41 °FQuite cool.8 mph61%30.51 "HgN/A
2:30 AM41 °FQuite cool.8 mph61%30.51 "HgN/A
2:00 AM41 °FQuite cool.6 mph61%30.51 "HgN/A
1:30 AM41 °FQuite cool.6 mph61%30.51 "HgN/A
1:00 AM41 °FQuite cool.8 mph61%30.48 "HgN/A
12:30 AM41 °FQuite cool.8 mph61%30.48 "HgN/A
12:00 AM41 °FQuite cool.8 mph61%30.48 "HgN/A
11:30 PM
Sun, Oct 23
43 °FQuite cool.10 mph57%30.48 "HgN/A
11:00 PM43 °FQuite cool.8 mph57%30.48 "HgN/A
10:30 PM43 °FQuite cool.8 mph57%30.48 "HgN/A
10:00 PM43 °FQuite cool.10 mph57%30.48 "HgN/A
9:30 PM43 °FQuite cool.8 mph61%30.48 "HgN/A
9:00 PM43 °FQuite cool.10 mph61%30.48 "HgN/A
8:30 PM43 °FQuite cool.10 mph61%30.48 "HgN/A
8:00 PM43 °FQuite cool.10 mph61%30.45 "HgN/A
7:30 PM43 °FQuite cool.8 mph61%30.45 "HgN/A
7:00 PM43 °FQuite cool.8 mph61%30.45 "HgN/A
6:30 PM43 °FQuite cool.10 mph61%30.45 "HgN/A
6:00 PM43 °FQuite cool.10 mph66%30.45 "HgN/A
5:30 PM43 °FQuite cool.10 mph66%30.42 "HgN/A
5:00 PM43 °FQuite cool.8 mph66%30.42 "HgN/A
Weather by CustomWeather, © 2016

See weather overviewHow to use our weather pages